Location: Unspecified
(0.0000°N, 0.0000°E)
Time: 19:39:51
(UTC+00:00)

DOVE 4 - Pass Details

Date: 11 December 2017
Orbit: 589 x 802 km, 97.7° (Epoch: 21 July)

Event Time Altitude Azimuth Distance (km) Brightness Sun altitude
Rises 03:42:37 0° 44° (NE) 2,868 ? -29.8°
Reaches altitude 10° 03:45:45 10° 69° (ENE) 1,940 ? -29.1°
Maximum altitude 03:47:58 14° 101° (ESE) 1,673 ? -28.6°
Drops below altitude 10° 03:50:10 10° 134° (SE) 1,920 ? -28.1°
Sets 03:53:14 0° 159° (SSE) 2,819 ? -27.4°
